Showing default

COSMOS 2090, 20735

Orbit data source: Space-Track

COSMOS 2090, 20735 is a payload satellite owned by UNKS (CIS) in LEO that was launched on Wed, 08 Aug 1990 UTC via a TSIKLON-3 launch vehicle from the Plesetsk Missile And Space Complex (PKMTR). Payload-class satellites include a variety of spacecraft equipped with specific instruments for various scientific and technological missions. These include communications satellites like Starlink; space stations such as the ISS; scientific satellites like the Hubble; Earth observation satellites from companies like Planet Labs, Umbra, and HawkEye 360; GPS; miniature CubeSats for education and research; and military/defense satellites.

Loading next visibility...
Identifier
20735, 1990-070A
Orbit
LEO
Country
Flag of CISCIS
Related business
Manufacturer
NPO PM
Mission
Defense Communications
Bus & Motor
STRELA-3, Unknown motor
Mass
225 kg wet, 225 kg dry
Launch date (UTC)
1990-08-08 (35 years ago)
Launch vehicle
TSIKLON-3
Launch site
Plesetsk Missile And Space Complex (PKMTR)
Object type
Payload
Rocket body
Debris
Shape & HBR
Cyl, 0.8 m
Radar Cross Section
1.257 m², Large (>1 m²)

Expand to show TLE details & history
Last TLE update: 20 hours ago

TLE from 20 hours ago
0 COSMOS 2090
1 20735U 90070A   25291.89324090  .00000027  00000-0  85894-4 0  9994
2 20735  82.5651  67.2820 0013494 251.9521 228.8089 12.65357381625413
Epoch: 2025-10-18T21:26Z
TLE epoch observation values (Epoch: 2025-10-18T21:26:16.013Z)
Latitude
58.64126°
Longitude
-114.20522°
Altitude
1,417.696 km
Speed
7.154 km/s
True Right ascension
15h 39m 55s
True Declination
58° 30' 04"
Sunlit
Object was in daylight at epoch
Visualization orbit readout
Latitude
Unknown
Longitude
Unknown
Altitude
Unknown
Speed
Unknown
Apparent Right ascension
Unknown
Apparent Declination
Unknown
Sunlit
N/A
Visualization observer readout
Local Sidereal Time
12:39:21
Azimuth
Unknown
Elevation
Unknown
Doppler factor
Unknown
Orbital elements
Apogee altitude
1,408.72 km
Perigee altitude
1,387.733 km
Semi-major axis
7,776.363 km
Eccentricity
0.00135
Inclination
82.5651°
RAAN
67.282°
Arg. of periapsis
251.9521°
True anomaly
228.69267°
Mean anomaly
228.8089°
Eccentric anomaly
228.75077°
Mean motion
3.16503 °/min
Orbital period
113.74 mins
BSTAR
0.000085894
Loading maneuver chart data...
Computing Atmospheric mass density...
Loading historical data...
Loading historical data...
Loading historical data...
Loading historical data...
Loading historical data...
Loading historical data...
Loading historical data...

Documentation

Showing up to 5 results
|